Overview Statistics Trail Chart Weather Telemetry Raw packets
 

This is the latest recevied weather packets stored in our database for station/object DL3NDS-WX. If no packets are shown the sender has not sent any weather packets the latest 10 day(s).

<< 523 524 525 526 527 528 529 >>
Time Temp. Humidity Pressure Rain* Wind** Luminosity Snow
1787904570 17.78° C 84% 1015.6 hPa 0 mm - 63 W/m² -
1787904507 17.78° C 84% 1015.6 hPa 0 mm - 65 W/m² -
1787904446 17.78° C 84% 1015.4 hPa 0 mm - 65 W/m² -
1787904385 17.78° C 84% 1015.4 hPa 0 mm - 60 W/m² -
1787904329 17.78° C 84% 1015.5 hPa 0 mm - 58 W/m² -
1787904263 17.78° C 84% 1015.5 hPa 0 mm - 56 W/m² -
1787904201 17.78° C 84% 1015.4 hPa 0 mm - 56 W/m² -
1787904145 17.78° C 84% 1015.3 hPa 0 mm - 58 W/m² -
1787904078 17.78° C 84% 1015.1 hPa 0 mm - 60 W/m² -
1787904017 17.78° C 84% 1015 hPa 0 mm - 62 W/m² -
1787903956 17.78° C 84% 1014.8 hPa 0 mm - 65 W/m² -
1787903895 17.78° C 84% 1014.8 hPa 0 mm - 69 W/m² -
1787903841 17.78° C 84% 1014.7 hPa 0 mm - 70 W/m² -
1787903789 17.78° C 84% 1014.7 hPa 0 mm - 79 W/m² -
1787903757 17.78° C 84% 1014.7 hPa 0 mm - 88 W/m² -
1787903651 17.78° C 84% 1014.6 hPa 0 mm - 98 W/m² -
1787903589 17.78° C 84% 1014.5 hPa 0 mm - 111 W/m² -
1787903527 17.78° C 84% 1014.5 hPa 0 mm - 127 W/m² -
1787903467 17.78° C 84% 1014.4 hPa 0 mm - 165 W/m² -
1787903406 17.78° C 84% 1014.3 hPa 0 mm - 186 W/m² -
1787903343 17.78° C 84% 1014.2 hPa 0 mm - 207 W/m² -
1787903281 17.78° C 84% 1014.1 hPa 0 mm - 230 W/m² -
1787903220 17.78° C 84% 1014.1 hPa 0 mm - 253 W/m² -
1787903159 17.78° C 84% 1014 hPa 0 mm - 221 W/m² -
1787903098 17.78° C 84% 1014 hPa 0 mm - 202 W/m² -

* Rain latest hour (hover to see other rain measurements)
** Current wind speed in m/s (hover to see current wind gust speed)